| time (UTC) | temp C | wind direction | speed KPH | gust KPH | rain 1hr cm | rain 24hr cm | rain mn cm | humidity % | barometer mb |
| 20260504173456 | 23 | 210 | 3.2 | 8.0 | 0.00 | 0.00 | 0.00 | 52 | 1014.3 |
| 20260504172954 | 23 | 217 | 4.8 | 11.3 | 0.00 | 0.00 | 0.00 | 52 | 1014.3 |
| 20260504172449 | 23 | 150 | 0.0 | 8.0 | 0.00 | 0.00 | 0.00 | 52 | 1014.4 |
| 20260504171946 | 23 | 223 | 6.4 | 8.0 | 0.00 | 0.00 | 0.00 | 54 | 1014.4 |
| 20260504171443 | 22 | 167 | 8.0 | 9.7 | 0.00 | 0.00 | 0.00 | 58 | 1014.5 |
| 20260504170940 | 22 | 167 | 4.8 | 9.7 | 0.00 | 0.00 | 0.00 | 56 | 1014.6 |
| 20260504170436 | 22 | 164 | 0.0 | 9.7 | 0.00 | 0.00 | 0.00 | 52 | 1014.4 |
| 20260504160356 | 22 | 210 | 3.2 | 6.4 | 0.00 | 0.00 | 0.00 | 57 | 1014.9 |
| 20260504150820 | 22 | 178 | 4.8 | 8.0 | 0.00 | 0.00 | 0.00 | 60 | 1015.1 |
| 20260504150316 | 22 | 210 | 4.8 | 8.0 | 0.00 | 0.00 | 0.00 | 60 | 1015.3 |
| 20260504141247 | 22 | 358 | 1.6 | 3.2 | 0.00 | 0.00 | 0.00 | 67 | 1015.1 |
| 20260504140743 | 22 | 170 | 0.0 | 4.8 | 0.00 | 0.00 | 0.00 | 68 | 1015.0 |
| 20260504140239 | 21 | 326 | 3.2 | 8.0 | 0.00 | 0.00 | 0.00 | 69 | 1015.1 |
| 20260504130708 | 20 | 340 | 0.0 | 3.2 | 0.00 | 0.00 | 0.00 | 75 | 1015.0 |
| 20260504130203 | 20 | 21 | 3.2 | 4.8 | 0.00 | 0.00 | 0.00 | 76 | 1015.0 |
| 20260504120127 | 17 | 2 | 3.2 | 4.8 | 0.00 | 0.00 | 0.00 | 87 | 1014.4 |
| 20260504110555 | 17 | 277 | 0.0 | 0.0 | 0.00 | 0.00 | 0.00 | 77 | 1014.2 |
| 20260504100517 | 16 | 358 | 0.0 | 0.0 | 0.00 | 0.00 | 0.00 | 91 | 1014.5 |
| 20260504081910 | 18 | 297 | 0.0 | 0.0 | 0.00 | 0.00 | 0.00 | 76 | 1014.4 |
| 20260504081406 | 18 | 304 | 0.0 | 0.0 | 0.00 | 0.00 | 0.00 | 76 | 1014.4 |
| 20260504080903 | 18 | 285 | 0.0 | 3.2 | 0.00 | 0.00 | 0.00 | 75 | 1014.5 |
| 20260504080400 | 18 | 249 | 0.0 | 1.6 | 0.00 | 0.00 | 0.00 | 75 | 1014.4 |
| 20260504070327 | 18 | 215 | 0.0 | 4.8 | 0.00 | 0.00 | 0.00 | 73 | 1014.9 |
| 20260504060247 | 19 | 252 | 1.6 | 6.4 | 0.00 | 0.00 | 0.00 | 75 | 1015.5 |
| 20260504050715 | 19 | 277 | 0.0 | 4.8 | 0.00 | 0.00 | 0.00 | 68 | 1015.8 |
| 20260504050212 | 19 | 218 | 0.0 | 4.8 | 0.00 | 0.00 | 0.00 | 69 | 1015.8 |
| 20260504045710 | 19 | 277 | 0.0 | 3.2 | 0.00 | 0.00 | 0.00 | 69 | 1015.9 |
| 20260504045210 | 20 | 247 | 1.6 | 4.8 | 0.00 | 0.00 | 0.00 | 69 | 1016.2 |
| 20260504044708 | 20 | 273 | 0.0 | 3.2 | 0.00 | 0.00 | 0.00 | 69 | 1015.9 |
| 20260504044205 | 20 | 220 | 4.8 | 9.7 | 0.00 | 0.00 | 0.00 | 69 | 1016.0 |
| 20260504043701 | 20 | 204 | 0.0 | 4.8 | 0.00 | 0.00 | 0.00 | 68 | 1016.3 |
| 20260504043158 | 20 | 184 | 4.8 | 9.7 | 0.00 | 0.00 | 0.00 | 68 | 1016.3 |
| 20260504042656 | 20 | 183 | 6.4 | 11.3 | 0.00 | 0.00 | 0.00 | 69 | 1016.2 |
| 20260504042152 | 20 | 235 | 0.0 | 6.4 | 0.00 | 0.00 | 0.00 | 69 | 1016.1 |
| 20260504041648 | 20 | 259 | 3.2 | 9.7 | 0.00 | 0.00 | 0.00 | 69 | 1016.1 |
| 20260504041144 | 20 | 204 | 3.2 | 9.7 | 0.00 | 0.00 | 0.00 | 69 | 1016.3 |
| 20260504040642 | 20 | 208 | 4.8 | 6.4 | 0.00 | 0.00 | 0.00 | 69 | 1016.0 |
| 20260504040138 | 20 | 232 | 1.6 | 8.0 | 0.00 | 0.00 | 0.00 | 70 | 1016.0 |
| 20260504035635 | 20 | 165 | 4.8 | 8.0 | 0.00 | 0.00 | 0.00 | 68 | 1016.2 |
| 20260504035132 | 20 | 212 | 6.4 | 6.4 | 0.00 | 0.00 | 0.00 | 69 | 1016.3 |
| 20260504034630 | 20 | 246 | 0.0 | 12.9 | 0.00 | 0.00 | 0.00 | 66 | 1016.1 |
| 20260504034126 | 20 | 210 | 4.8 | 8.0 | 0.00 | 0.00 | 0.00 | 63 | 1016.1 |
| 20260504033624 | 21 | 243 | 6.4 | 6.4 | 0.00 | 0.00 | 0.00 | 62 | 1016.2 |
| 20260504033121 | 20 | 252 | 3.2 | 3.2 | 0.00 | 0.00 | 0.00 | 62 | 1016.1 |
| 20260504032618 | 21 | 197 | 6.4 | 8.0 | 0.00 | 0.00 | 0.00 | 61 | 1015.9 |
| 20260504032115 | 21 | 191 | 4.8 | 9.7 | 0.00 | 0.00 | 0.00 | 58 | 1016.2 |
| 20260504031612 | 20 | 185 | 1.6 | 11.3 | 0.00 | 0.00 | 0.00 | 61 | 1016.2 |
| 20260504031108 | 21 | 208 | 0.0 | 6.4 | 0.00 | 0.00 | 0.00 | 63 | 1016.0 |
| 20260504030605 | 21 | 237 | 3.2 | 8.0 | 0.00 | 0.00 | 0.00 | 62 | 1016.2 |
| 20260504025559 | 20 | 204 | 6.4 | 8.0 | 0.00 | 0.00 | 0.00 | 63 | 1016.0 |
| 20260504025055 | 20 | 198 | 1.6 | 4.8 | 0.00 | 0.00 | 0.00 | 65 | 1015.9 |
| 20260504024553 | 20 | 170 | 0.0 | 4.8 | 0.00 | 0.00 | 0.00 | 66 | 1015.9 |
| 20260504024049 | 21 | 183 | 8.0 | 11.3 | 0.00 | 0.00 | 0.00 | 67 | 1015.9 |
| 20260504023546 | 21 | 169 | 9.7 | 11.3 | 0.00 | 0.00 | 0.00 | 67 | 1015.7 |
| 20260504023042 | 21 | 198 | 0.0 | 3.2 | 0.00 | 0.00 | 0.00 | 66 | 1015.9 |
| 20260504022538 | 20 | 277 | 0.0 | 1.6 | 0.00 | 0.00 | 0.00 | 62 | 1015.8 |
| 20260504022034 | 20 | 277 | 0.0 | 1.6 | 0.00 | 0.00 | 0.00 | 61 | 1015.8 |
| 20260504021532 | 20 | 329 | 0.0 | 1.6 | 0.00 | 0.00 | 0.00 | 62 | 1015.6 |
| 20260504021029 | 20 | 301 | 0.0 | 3.2 | 0.00 | 0.00 | 0.00 | 63 | 1015.5 |
| 20260504020526 | 20 | 304 | 0.0 | 1.6 | 0.00 | 0.00 | 0.00 | 62 | 1015.4 |
| 20260504020022 | 20 | 284 | 0.0 | 1.6 | 0.00 | 0.00 | 0.00 | 61 | 1015.6 |
| 20260504015519 | 20 | 343 | 0.0 | 3.2 | 0.00 | 0.00 | 0.00 | 60 | 1015.6 |
| 20260504015015 | 20 | 232 | 0.0 | 1.6 | 0.00 | 0.00 | 0.00 | 59 | 1015.3 |
| 20260504014511 | 20 | 275 | 0.0 | 1.6 | 0.00 | 0.00 | 0.00 | 60 | 1015.4 |
| 20260504014008 | 20 | 322 | 0.0 | 3.2 | 0.00 | 0.00 | 0.00 | 60 | 1015.3 |
| 20260504013506 | 20 | 232 | 0.0 | 3.2 | 0.00 | 0.00 | 0.00 | 59 | 1015.2 |
| 20260504013002 | 21 | 298 | 0.0 | 3.2 | 0.00 | 0.00 | 0.00 | 60 | 1015.2 |
| 20260504012500 | 21 | 252 | 0.0 | 1.6 | 0.00 | 0.00 | 0.00 | 60 | 1015.2 |
| 20260504011958 | 20 | 318 | 0.0 | 3.2 | 0.00 | 0.00 | 0.00 | 60 | 1015.1 |
| 20260504011454 | 21 | 275 | 0.0 | 3.2 | 0.00 | 0.00 | 0.00 | 59 | 1014.9 |
| 20260504010950 | 20 | 284 | 0.0 | 0.0 | 0.00 | 0.00 | 0.00 | 59 | 1015.1 |
| 20260504010446 | 20 | 204 | 0.0 | 3.2 | 0.00 | 0.00 | 0.00 | 59 | 1015.1 |
| 20260504005942 | 20 | 259 | 0.0 | 0.0 | 0.00 | 0.00 | 0.00 | 59 | 1015.1 |
| 20260504005439 | 21 | 183 | 0.0 | 3.2 | 0.00 | 0.00 | 0.00 | 59 | 1015.1 |
| 20260504004937 | 21 | 304 | 0.0 | 1.6 | 0.00 | 0.00 | 0.00 | 59 | 1015.0 |
| 20260504004434 | 21 | 184 | 0.0 | 3.2 | 0.00 | 0.00 | 0.00 | 59 | 1015.0 |
| 20260504003931 | 21 | 290 | 3.2 | 3.2 | 0.00 | 0.00 | 0.00 | 58 | 1015.0 |
| 20260504003427 | 21 | 178 | 0.0 | 0.0 | 0.00 | 0.00 | 0.00 | 59 | 1014.8 |
| 20260504002924 | 21 | 193 | 0.0 | 1.6 | 0.00 | 0.00 | 0.00 | 57 | 1014.9 |
| 20260504002421 | 21 | 304 | 0.0 | 1.6 | 0.00 | 0.00 | 0.00 | 56 | 1014.8 |
| 20260504001918 | 22 | 276 | 0.0 | 4.8 | 0.00 | 0.00 | 0.00 | 55 | 1014.8 |
| 20260504001416 | 22 | 301 | 0.0 | 3.2 | 0.00 | 0.00 | 0.00 | 58 | 1014.8 |
| 20260504000912 | 22 | 262 | 0.0 | 3.2 | 0.00 | 0.00 | 0.00 | 56 | 1014.9 |
| 20260504000410 | 22 | 274 | 0.0 | 6.4 | 0.00 | 0.00 | 0.00 | 57 | 1015.0 |
| 20260503235907 | 22 | 181 | 3.2 | 6.4 | 0.00 | 0.00 | 0.00 | 55 | 1015.0 |
| 20260503235405 | 22 | 249 | 0.0 | 4.8 | 0.00 | 0.00 | 0.00 | 54 | 1015.0 |
| 20260503234902 | 22 | 192 | 4.8 | 6.4 | 0.00 | 0.00 | 0.00 | 57 | 1015.0 |
| 20260503234359 | 22 | 317 | 0.0 | 6.4 | 0.00 | 0.00 | 0.00 | 56 | 1014.8 |
| 20260503233857 | 22 | 185 | 3.2 | 6.4 | 0.00 | 0.00 | 0.00 | 54 | 1014.9 |
| 20260503233353 | 22 | 178 | 3.2 | 4.8 | 0.00 | 0.00 | 0.00 | 56 | 1014.9 |
| 20260503232849 | 22 | 178 | 0.0 | 3.2 | 0.00 | 0.00 | 0.00 | 53 | 1015.1 |
| 20260503232347 | 22 | 167 | 0.0 | 4.8 | 0.00 | 0.00 | 0.00 | 53 | 1014.9 |
| 20260503231845 | 22 | 188 | 0.0 | 6.4 | 0.00 | 0.00 | 0.00 | 55 | 1015.0 |
| 20260503231342 | 22 | 317 | 0.0 | 6.4 | 0.00 | 0.00 | 0.00 | 53 | 1014.8 |
| 20260503230838 | 22 | 201 | 0.0 | 6.4 | 0.00 | 0.00 | 0.00 | 52 | 1015.0 |
| 20260503230335 | 22 | 190 | 1.6 | 8.0 | 0.00 | 0.00 | 0.00 | 55 | 1015.0 |
| 20260503225833 | 22 | 188 | 4.8 | 8.0 | 0.00 | 0.00 | 0.00 | 53 | 1015.2 |
| 20260503225328 | 22 | 175 | 4.8 | 4.8 | 0.00 | 0.00 | 0.00 | 53 | 1015.2 |
| 20260503224825 | 22 | 178 | 3.2 | 8.0 | 0.00 | 0.00 | 0.00 | 50 | 1015.4 |
| 20260503224322 | 22 | 178 | 3.2 | 8.0 | 0.00 | 0.00 | 0.00 | 51 | 1015.2 |
| 20260503223820 | 22 | 218 | 3.2 | 4.8 | 0.00 | 0.00 | 0.00 | 49 | 1015.2 |
| 20260503223317 | 22 | 183 | 1.6 | 11.3 | 0.00 | 0.00 | 0.00 | 51 | 1015.3 |
| 20260503222812 | 22 | 172 | 4.8 | 8.0 | 0.00 | 0.00 | 0.00 | 48 | 1015.2 |
| 20260503222311 | 22 | 186 | 0.0 | 4.8 | 0.00 | 0.00 | 0.00 | 51 | 1015.4 |
| 20260503221809 | 22 | 180 | 4.8 | 11.3 | 0.00 | 0.00 | 0.00 | 48 | 1015.5 |
| 20260503221307 | 23 | 164 | 4.8 | 4.8 | 0.00 | 0.00 | 0.00 | 46 | 1015.5 |
| 20260503220803 | 23 | 255 | 0.0 | 8.0 | 0.00 | 0.00 | 0.00 | 51 | 1015.5 |
| 20260503220300 | 23 | 306 | 4.8 | 6.4 | 0.00 | 0.00 | 0.00 | 50 | 1015.6 |
| 20260503215757 | 22 | 268 | 1.6 | 4.8 | 0.00 | 0.00 | 0.00 | 51 | 1015.5 |
| 20260503215254 | 22 | 200 | 8.0 | 11.3 | 0.00 | 0.00 | 0.00 | 52 | 1015.6 |
| 20260503214752 | 22 | 196 | 4.8 | 11.3 | 0.00 | 0.00 | 0.00 | 51 | 1015.8 |
| 20260503214248 | 22 | 189 | 3.2 | 8.0 | 0.00 | 0.00 | 0.00 | 50 | 1015.7 |
| 20260503213746 | 22 | 186 | 4.8 | 11.3 | 0.00 | 0.00 | 0.00 | 50 | 1015.7 |
| 20260503213243 | 23 | 178 | 11.3 | 12.9 | 0.00 | 0.00 | 0.00 | 49 | 1015.8 |
| 20260503212740 | 23 | 189 | 3.2 | 9.7 | 0.00 | 0.00 | 0.00 | 50 | 1015.8 |
| 20260503212238 | 22 | 187 | 4.8 | 12.9 | 0.00 | 0.00 | 0.00 | 48 | 1016.1 |
| 20260503211735 | 23 | 211 | 0.0 | 9.7 | 0.00 | 0.00 | 0.00 | 47 | 1015.9 |
| 20260503211231 | 23 | 186 | 8.0 | 14.5 | 0.00 | 0.00 | 0.00 | 50 | 1016.1 |
| 20260503210727 | 23 | 223 | 6.4 | 11.3 | 0.00 | 0.00 | 0.00 | 50 | 1015.9 |
| 20260503210225 | 23 | 200 | 3.2 | 9.7 | 0.00 | 0.00 | 0.00 | 47 | 1016.2 |
| 20260503205720 | 23 | 178 | 4.8 | 12.9 | 0.00 | 0.00 | 0.00 | 47 | 1016.3 |
| 20260503205216 | 23 | 191 | 4.8 | 20.9 | 0.00 | 0.00 | 0.00 | 50 | 1016.3 |
| 20260503204713 | 23 | 181 | 4.8 | 8.0 | 0.00 | 0.00 | 0.00 | 47 | 1016.5 |
| 20260503204211 | 23 | 185 | 8.0 | 14.5 | 0.00 | 0.00 | 0.00 | 50 | 1016.3 |
| 20260503203708 | 23 | 247 | 0.0 | 11.3 | 0.00 | 0.00 | 0.00 | 52 | 1016.4 |
| 20260503203205 | 22 | 205 | 8.0 | 14.5 | 0.00 | 0.00 | 0.00 | 48 | 1016.5 |
| 20260503202702 | 23 | 204 | 4.8 | 12.9 | 0.00 | 0.00 | 0.00 | 50 | 1016.5 |
| 20260503202200 | 22 | 188 | 4.8 | 14.5 | 0.00 | 0.00 | 0.00 | 50 | 1016.6 |
| 20260503201658 | 23 | 196 | 6.4 | 8.0 | 0.00 | 0.00 | 0.00 | 48 | 1016.8 |
| 20260503201155 | 22 | 189 | 4.8 | 14.5 | 0.00 | 0.00 | 0.00 | 47 | 1016.9 |
| 20260503200651 | 23 | 191 | 8.0 | 8.0 | 0.00 | 0.00 | 0.00 | 51 | 1017.1 |
| 20260503200148 | 23 | 196 | 3.2 | 9.7 | 0.00 | 0.00 | 0.00 | 47 | 1017.1 |
| 20260503195645 | 24 | 227 | 3.2 | 9.7 | 0.00 | 0.00 | 0.00 | 50 | 1017.1 |
| 20260503195142 | 23 | 180 | 4.8 | 8.0 | 0.00 | 0.00 | 0.00 | 45 | 1017.2 |
| 20260503194639 | 23 | 200 | 8.0 | 11.3 | 0.00 | 0.00 | 0.00 | 46 | 1017.2 |
| 20260503194134 | 23 | 201 | 0.0 | 11.3 | 0.00 | 0.00 | 0.00 | 46 | 1017.3 |
| 20260503193631 | 22 | 133 | 3.2 | 9.7 | 0.00 | 0.00 | 0.00 | 48 | 1017.6 |
| 20260503193126 | 22 | 196 | 8.0 | 12.9 | 0.00 | 0.00 | 0.00 | 47 | 1017.7 |
| 20260503192622 | 23 | 175 | 8.0 | 14.5 | 0.00 | 0.00 | 0.00 | 51 | 1017.6 |
| 20260503192118 | 22 | 183 | 11.3 | 14.5 | 0.00 | 0.00 | 0.00 | 47 | 1017.6 |
| 20260503191615 | 22 | 260 | 1.6 | 14.5 | 0.00 | 0.00 | 0.00 | 48 | 1017.8 |
| 20260503191112 | 22 | 178 | 4.8 | 9.7 | 0.00 | 0.00 | 0.00 | 46 | 1017.6 |
| 20260503190609 | 22 | 197 | 4.8 | 9.7 | 0.00 | 0.00 | 0.00 | 47 | 1017.7 |
| 20260503190106 | 22 | 210 | 9.7 | 17.7 | 0.00 | 0.00 | 0.00 | 48 | 1017.7 |
| 20260503185603 | 22 | 187 | 12.9 | 19.3 | 0.00 | 0.00 | 0.00 | 48 | 1017.7 |
| 20260503185102 | 22 | 212 | 8.0 | 12.9 | 0.00 | 0.00 | 0.00 | 48 | 1018.0 |
| 20260503184558 | 23 | 46 | 0.0 | 6.4 | 0.00 | 0.00 | 0.00 | 43 | 1017.9 |
| 20260503184055 | 23 | 52 | 4.8 | 9.7 | 0.00 | 0.00 | 0.00 | 42 | 1018.2 |
| 20260503183551 | 24 | 9 | 3.2 | 6.4 | 0.00 | 0.00 | 0.00 | 45 | 1018.1 |
| 20260503183049 | 23 | 27 | 4.8 | 6.4 | 0.00 | 0.00 | 0.00 | 41 | 1017.9 |
| 20260503182547 | 23 | 277 | 0.0 | 4.8 | 0.00 | 0.00 | 0.00 | 46 | 1017.9 |
| 20260503182045 | 23 | 88 | 0.0 | 4.8 | 0.00 | 0.00 | 0.00 | 41 | 1017.9 |
| 20260503181541 | 23 | 250 | 6.4 | 8.0 | 0.00 | 0.00 | 0.00 | 41 | 1018.2 |
| 20260503181038 | 23 | 329 | 4.8 | 8.0 | 0.00 | 0.00 | 0.00 | 46 | 1018.2 |
| 20260503180535 | 23 | 14 | 9.7 | 9.7 | 0.00 | 0.00 | 0.00 | 43 | 1018.1 |
| 20260503180032 | 23 | 313 | 4.8 | 6.4 | 0.00 | 0.00 | 0.00 | 44 | 1018.4 |
| 20260503175530 | 23 | 4 | 4.8 | 9.7 | 0.00 | 0.00 | 0.00 | 43 | 1018.4 |
| 20260503175027 | 23 | 34 | 3.2 | 11.3 | 0.00 | 0.00 | 0.00 | 45 | 1018.4 |
| 20260503174524 | 23 | 193 | 1.6 | 4.8 | 0.00 | 0.00 | 0.00 | 45 | 1018.4 |
| 20260503174020 | 22 | 183 | 0.0 | 4.8 | 0.00 | 0.00 | 0.00 | 45 | 1018.4 |